Location: Berg
(48.5667°N, 13.9833°E)
Time: 12:18:14
(UTC+00:00)

STARLINK-1203 - Visible Passes

Search period start: 06 August 2020 00:00
Search period end: 16 August 2020 00:00
Orbit: 549 x 549 km, 53.0° (Epoch: 06 August)

Date Brightness Start Highest point End Pass type
(mag) Time Alt. Az. Time Alt. Az. Time Alt. Az.
06 Aug 4.2 00:27:58 10° WNW 00:30:53 44° WNW 00:30:53 44° WNW visible
06 Aug6.702:16:39SSE02:16:39SSE02:06:19WNWvisible
06 Aug 3.6 19:22:49 10° SW 19:26:57 72° SSE 19:31:06 10° ENE visible
06 Aug 4.5 21:02:40 10° W 21:06:43 48° N 21:10:45 10° ENE visible
06 Aug 4.4 22:42:42 10° WNW 22:46:46 51° NNE 22:48:03 36° ENE visible
07 Aug 5.6 00:22:21 10° WNW 00:23:36 19° WNW 00:23:36 19° WNW visible
07 Aug 3.6 19:17:09 10° WSW 19:21:19 87° SSE 19:25:29 10° ENE visible
07 Aug 4.6 20:57:09 10° W 21:01:10 46° N 21:05:11 10° ENE visible
07 Aug 4.2 22:37:06 10° WNW 22:41:12 56° NNE 22:41:33 53° NE visible
08 Aug 6.1 00:16:47 10° WNW 00:17:08 12° WNW 00:17:08 12° WNW visible
08 Aug 3.8 19:11:32 10° WSW 19:15:41 80° NNW 19:19:51 10° ENE visible
08 Aug 4.7 20:51:37 10° WNW 20:55:36 44° N 20:59:37 10° ENE visible
08 Aug 4.0 22:31:30 10° WNW 22:35:21 61° N 22:35:21 61° N visible
09 Aug 4.0 19:05:57 10° WSW 19:10:04 69° NNW 19:14:14 10° ENE visible
09 Aug 4.7 20:46:04 10° WNW 20:50:03 44° N 20:53:42 12° ENE visible
09 Aug 4.1 22:25:52 10° WNW 22:29:18 56° NW 22:29:18 56° NW visible
10 Aug 4.2 19:00:22 10° W 19:04:28 60° NNW 19:08:35 10° ENE visible
10 Aug 4.6 20:40:30 10° WNW 20:44:30 45° N 20:47:43 15° ENE visible
10 Aug 4.3 22:20:14 10° WNW 22:23:20 49° WNW 22:23:20 49° WNW visible
11 Aug 4.4 18:54:49 10° W 18:58:53 54° NNW 19:02:58 10° ENE visible
11 Aug 4.5 20:34:55 10° WNW 20:38:57 47° N 20:41:47 18° ENE visible
11 Aug 4.6 22:14:36 10° WNW 22:17:24 42° WNW 22:17:24 42° WNW visible
12 Aug 4.4 20:29:19 10° WNW 20:33:22 50° N 20:35:55 21° E visible
12 Aug 4.8 22:08:58 10° WNW 22:11:32 35° WNW 22:11:32 35° WNW visible
13 Aug 4.2 20:23:42 10° WNW 20:27:47 54° NNE 20:30:04 24° E visible
13 Aug 5.0 22:03:21 10° WNW 22:05:41 31° W 22:05:41 31° W visible
14 Aug 4.0 20:18:04 10° WNW 20:22:11 61° NNE 20:24:16 27° E visible
14 Aug 5.3 21:57:46 10° WNW 21:59:53 26° W 21:59:53 26° W visible
15 Aug 3.8 20:12:25 10° WNW 20:16:34 69° NNE 20:18:29 30° E visible
15 Aug 5.5 21:52:12 10° WNW 21:54:06 23° W 21:54:06 23° W visible
